Location: San Antonio
(29.4240°N, 98.4930°W)
Time: 20:54:23
(UTC-05:00)

Tiangong - Pass Details

Date: 19 June 2024
Orbit: 374 x 377 km, 41.5° (Epoch: 18 July)

Event Time Altitude Azimuth Distance (km) Brightness Sun altitude
Rises 22:04:41 0° 291° (WNW) 2,244 3.1 -16.8°
Reaches altitude 10° 22:06:56 10° 279° (W) 1,387 1.5 -17.1°
Maximum altitude 22:09:39 27° 218° (SW) 759 -0.7 -17.6°
Enters shadow 22:09:59 26° 206° (SSW) 772 -0.8 -17.6°
